Location: Ellerstadt
(49.4644°N, 8.2615°E)
Time: 11:12:19
(UTC+00:00)

Transit 4A - All Passes

Search period start: 13 June 2021 00:00
Search period end: 23 June 2021 00:00
Orbit: 871 x 973 km, 66.8° (Epoch: 13 June)

Date Brightness Start Highest point End Pass type
(mag) Time Alt. Az. Time Alt. Az. Time Alt. Az.
13 Jun - 08:45:25 10° ESE 08:46:51 11° E 08:48:17 10° E daylight
13 Jun - 10:26:05 10° SSW 10:32:02 60° ESE 10:37:52 10° NE daylight
13 Jun - 12:13:14 10° WSW 12:18:43 35° NW 12:24:07 10° NNE daylight
13 Jun - 14:03:19 10° NW 14:06:52 16° NNW 14:10:25 10° NNE daylight
13 Jun - 15:52:10 10° NNW 15:55:44 16° NNE 15:59:17 10° NE daylight
13 Jun - 17:38:29 10° NNW 17:43:52 36° NE 17:49:13 10° ESE daylight
13 Jun - 19:24:48 10° NW 19:30:30 57° WSW 19:36:11 10° SSE daylight
14 Jun - 08:52:08 10° SE 08:55:47 17° ESE 08:59:23 10° ENE daylight
14 Jun - 10:35:14 10° SSW 10:41:17 83° ESE 10:47:14 10° NE daylight
14 Jun - 12:23:12 10° W 12:28:18 28° NW 12:33:21 10° NNE daylight
14 Jun - 14:13:28 10° NW 14:16:43 15° N 14:19:57 10° NNE daylight
14 Jun - 16:01:35 10° NNW 16:05:32 18° NNE 16:09:28 10° ENE daylight
14 Jun - 17:47:44 10° NNW 17:53:23 47° NE 17:58:59 10° ESE daylight
14 Jun - 19:34:16 10° NW 19:39:40 40° WSW 19:45:03 10° S daylight
15 Jun - 09:00:04 10° SSE 09:04:47 24° ESE 09:09:25 10° ENE daylight
15 Jun - 10:44:35 10° SW 10:50:37 73° NW 10:56:32 10° NE daylight
15 Jun - 12:33:16 10° W 12:37:58 23° NNW 12:42:36 10° NNE daylight
15 Jun - 14:23:29 10° NNW 14:26:35 14° N 14:29:39 10° NNE daylight
15 Jun - 16:10:54 10° NNW 16:15:18 21° NNE 16:19:38 10° ENE daylight
15 Jun - 17:57:00 10° NNW 18:02:48 63° NE 18:08:35 10° SE daylight
15 Jun - 19:43:54 10° NW 19:48:45 28° WSW 19:53:37 10° SSW daylight
16 Jun - 09:08:30 10° S 09:13:51 34° ESE 09:19:08 10° NE daylight
16 Jun - 10:54:07 10° SW 11:00:01 55° NW 11:05:49 10° NNE daylight
16 Jun - 12:43:26 10° WNW 12:47:41 20° NNW 12:51:53 10° NNE daylight
16 Jun - 14:33:20 10° NNW 14:36:26 14° N 14:39:33 10° NE daylight
16 Jun - 16:20:11 10° NNW 16:24:59 25° NNE 16:29:45 10° E daylight
16 Jun - 18:06:17 10° NW 18:12:10 85° NE 18:18:01 10° SE daylight
16 Jun - 19:53:47 10° WNW 19:57:47 19° WSW 20:01:48 10° SSW daylight
17 Jun - 09:17:14 10° S 09:23:00 48° ESE 09:28:40 10° NE daylight
17 Jun - 11:03:49 10° WSW 11:09:29 42° NW 11:15:03 10° NNE daylight
17 Jun - 12:53:38 10° WNW 12:57:27 17° NNW 13:01:14 10° NNE daylight
17 Jun - 14:42:58 10° NNW 14:46:18 15° N 14:49:37 10° NE daylight
17 Jun - 16:29:26 10° NNW 16:34:36 31° NE 16:39:45 10° E daylight
17 Jun - 18:15:38 10° NW 18:21:27 71° WSW 18:27:15 10° SSE daylight
17 Jun - 20:04:15 10° WNW 20:06:44 13° WSW 20:09:14 10° SW daylight
18 Jun - 07:44:26 10° SE 07:46:55 13° ESE 07:49:24 10° ENE daylight
18 Jun - 09:26:14 10° SSW 09:32:13 68° ESE 09:38:05 10° NE daylight
18 Jun - 11:13:41 10° W 11:19:01 33° NW 11:24:18 10° NNE daylight
18 Jun - 13:03:50 10° NW 13:07:17 15° NNW 13:10:41 10° NNE daylight
18 Jun - 14:52:27 10° NNW 14:56:08 17° NNE 14:59:48 10° NE daylight
18 Jun - 16:38:40 10° NNW 16:44:09 40° NE 16:49:37 10° ESE daylight
18 Jun - 18:25:03 10° NW 18:30:39 50° WSW 18:36:16 10° S daylight
19 Jun - 07:51:48 10° SSE 07:55:53 19° ESE 07:59:54 10° ENE daylight
19 Jun - 09:35:27 10° SW 09:41:30 88° NW 09:47:25 10° NE daylight
19 Jun - 11:23:40 10° W 11:28:38 26° NNW 11:33:32 10° NNE daylight
19 Jun - 13:13:58 10° NW 13:17:07 14° N 13:20:16 10° NNE daylight
19 Jun - 15:01:48 10° NNW 15:05:55 19° NNE 15:09:59 10° ENE daylight
19 Jun - 16:47:55 10° NNW 16:53:38 52° NE 16:59:19 10° ESE daylight
19 Jun - 18:34:34 10° NW 18:39:48 35° WSW 18:45:02 10° S daylight
20 Jun - 07:59:56 10° SSE 08:04:55 27° ESE 08:09:48 10° NE daylight
20 Jun - 09:44:52 10° SW 09:50:51 66° NW 09:56:44 10° NNE daylight
20 Jun - 11:33:47 10° WNW 11:38:18 22° NNW 11:42:47 10° NNE daylight
20 Jun - 13:23:55 10° NNW 13:26:59 14° N 13:30:02 10° NNE daylight
20 Jun - 15:11:06 10° NNW 15:15:38 22° NNE 15:20:08 10° ENE daylight
20 Jun - 16:57:11 10° NNW 17:03:02 70° NE 17:08:52 10° SE daylight
20 Jun - 18:44:16 10° WNW 18:48:52 25° WSW 18:53:29 10° SSW daylight
21 Jun - 08:08:29 10° S 08:14:00 39° ESE 08:19:26 10° NE daylight
21 Jun - 09:54:27 10° WSW 10:00:16 49° NW 10:05:59 10° NNE daylight
21 Jun - 11:43:58 10° WNW 11:48:02 19° NNW 11:52:05 10° NNE daylight
21 Jun - 13:33:41 10° NNW 13:36:50 15° N 13:40:00 10° NE daylight
21 Jun - 15:20:22 10° NNW 15:25:18 27° NNE 15:30:13 10° E daylight
21 Jun - 17:06:30 10° NW 17:12:22 86° SW 17:18:13 10° SSE daylight
21 Jun - 18:54:17 10° WNW 18:57:52 17° WSW 19:01:28 10° SW daylight
22 Jun - 08:17:20 10° SSW 08:23:10 55° ESE 08:28:55 10° NE daylight
22 Jun - 10:04:13 10° WSW 10:09:46 38° NW 10:15:14 10° NNE daylight
22 Jun - 11:54:11 10° NW 11:57:50 16° NNW 12:01:28 10° NNE daylight
22 Jun - 13:43:15 10° NNW 13:46:41 16° NNE 13:50:07 10° NE daylight
22 Jun - 15:29:37 10° NNW 15:34:54 34° NE 15:40:10 10° ESE daylight
22 Jun - 17:15:52 10° NW 17:21:37 63° WSW 17:27:23 10° SSE daylight
22 Jun - 19:05:19 10° W 19:06:48 11° W 19:08:16 10° WSW daylight
